Regional Weather Roundup
Issued by NWS New Orleans/Baton Rouge, LA

Home | Current Version | Previous Version | Text Only | Print | Product List | Glossary On
Versions: 1 2 3 4 5 6 7 8 9 10 11 12 13 14 15 16 17 18 19 20 21 22 23 24 25 26 27 28 29 30 31 32 33 34 35 36 37 38 39 40 41 42 43 44 45 46 47 48 49 50
000
ASUS44 KLIX 010010
RWRLIX
NEW ORLEANS REGIONAL WEATHER ROUNDUP
NATIONAL WEATHER SERVICE NEW ORLEANS LA
600 PM CST SAT JAN 31 2015

NOTE: "FAIR" INDICATES FEW OR NO CLOUDS BELOW 12,000 FEET WITH NO
      SIGNIFICANT WEATHER AND/OR OBSTRUCTIONS TO VISIBILITY.
      SKY/WX - SKY CONDITION AND SIGNIFICANT WEATHER.
      TMP - AIR TEMPERATURE.     DP    - DEWPOINT TEMPERATURE.
      RH  - RELATIVE HUMIDITY.   PRES  - PRESSURE.
      HI  - HEAT INDEX.          WCI   - WIND CHILL INDEX.

*  THESE STATIONS ARE NOT NWS OR FAA STATIONS AND ARE NOT UNDER
   NWS QUALITY CONTROL.

LAZ038-040-048-061>063-065>067-069-010100-
SOUTHEAST LOUISIANA

CITY           SKY/WX    TMP DP  RH WIND       PRES   REMARKS
N.O. AUDUBON     N/A     59  53  80 MISG        N/A
6HR MIN TEMP:  58; 6HR MAX TEMP:  63;

N.O. INTL ARPT CLOUDY    57  49  74 E7        30.18S
6HR MIN TEMP:  57; 6HR MAX TEMP:  61;

N.O. LAKEFRONT CLOUDY    58  50  75 E12       30.19S
6HR MIN TEMP:  58; 6HR MAX TEMP:  61;

N.O. DOWNTOWN* NOT AVBL
SLIDELL        MOCLDY    55  47  74 E3        30.20R
6HR MIN TEMP:  55; 6HR MAX TEMP:  63;

BATON ROUGE    MOCLDY    56  47  71 E12       30.16S
6HR MIN TEMP:  56; 6HR MAX TEMP:  62;

BOOTHVILLE     MOCLDY    59  53  80 E5        30.18R
6HR MIN TEMP:  59; 6HR MAX TEMP:  66;

BELLE CHASSE   CLOUDY    59  48  67 E9        30.17S
6HR MIN TEMP:  58; 6HR MAX TEMP:  64;

BOGALUSA*        N/A     58  46  65 S7        30.21S
6HR MIN TEMP:  57; 6HR MAX TEMP:  65;

GALLIANO*      MOCLDY    61  54  76 MISG      30.17R
6HR MIN TEMP:  61; 6HR MAX TEMP:  68;

NEW ROADS*       N/A     56  46  67 E7        30.15S
6HR MIN TEMP:  56; 6HR MAX TEMP:  63;

GONZALES*        N/A     55  49  80 E5        30.16F
6HR MIN TEMP:  55; 6HR MAX TEMP:  61;

HAMMOND*       MOCLDY    55  46  71 SE5       30.20S
HOUMA*         CLOUDY    59  52  77 E14       30.16S
PORT FOURCHON* CLEAR     63  55  77 E13G18    30.18R

$$

MSZ070-080>082-010100-
SOUTHERN MISSISSIPPI

CITY           SKY/WX    TMP DP  RH WIND       PRES   REMARKS
MCCOMB         PTCLDY    53  38  56 CALM      30.18R
6HR MIN TEMP:  51; 6HR MAX TEMP:  60;

GULFPORT       MOCLDY    55  46  71 E10       30.21S
6HR MIN TEMP:  55; 6HR MAX TEMP:  60;

BILOXI         MOCLDY    55  47  73 E7        30.21F
6HR MIN TEMP:  55; 6HR MAX TEMP:  61;

PASCAGOULA     MOCLDY    52  44  74 E6        30.22S
6HR MIN TEMP:  51; 6HR MAX TEMP:  61;

STENNIS ARPT*  CLEAR     54  45  71 E8        30.20F

$$

COASTAL OBSERVATIONS
LAKE AND NEARSHORE STATIONS

STATION/POSITION TIME  TEMP    WIND        PRES    WAVE
                       AIR SEA DIR/SP/G            HT/PER
                 (UTC) (F)     (DEG/KT/KT) (MB)    (FT/S)
PASCAGOULA       0000   57     100/  9/ 13 1022.6
WAVELAND YACHT   0000   55      90/ 10/ 11 1021.8
GRAND ISLE       0000   63 62  100/ 10/ 14 1021.5
SOUTHWEST PASS   0000   63 48  110/ 15/ 17 1021.5
NEW CANAL        0000   56 56   80/  6/ 10 1022.3
SHELL BEACH      0000   57 57   80/ 12/ 13 1022.1

OFFSHORE STATIONS

STATION/POSITION TIME  TEMP    WIND        PRES    WAVE
                       AIR SEA DIR/SP/G            HT/PER
                 (UTC) (F)     (DEG/KT/KT) (MB)    (FT/S)
64 S DAUPHIN ISL 2246   62 69  100/ 19/ 23 1022.2    5/ 7

$$



USA.gov is the U.S. government's official web portal to all federal, state and local government web resources and services.